Location: Glubokaya Balka
(48.0133°N, 39.0067°E)
Time: 07:11:49
(UTC+00:00)

Daily predictions for brighter satellites

Satellite Brightness Start Highest point End
(mag) Time Altitude Azimuth Time Altitude Azimuth Time Altitude Azimuth
ATLAS 5 CENTAUR R/B 2.0 15:45:36 10° NW 15:48:12 90° E 15:55:10 10° SE
Cosmos 1908 Rocket 3.5 15:49:29 10° S 15:53:50 81° E 15:58:15 10° NNE
Cosmos 2263 Rocket 2.2 15:52:05 10° SSW 15:57:33 62° ESE 16:03:05 10° NNE
Cosmos 1707 3.7 15:54:31 10° NNE 15:57:49 26° ENE 16:01:06 10° SE
CZ-2C R/B 3.2 15:52:43 10° SSE 15:57:54 65° ENE 16:03:25 10° N
Cosmos 1743 3.5 15:54:20 10° SSW 15:58:07 58° WNW 16:01:55 10° N
Ariane Rocket 4.1 15:54:42 10° ESE 15:58:51 26° ENE 16:03:02 10° N
Meteor 2-9 Rocket 4.3 15:57:10 10° S 16:02:57 64° E 16:08:41 10° NNE
Cosmos 1844 Rocket 4.0 16:01:36 10° SE 16:05:00 17° E 16:08:23 10° ENE
SJ-6B 4.2 16:05:25 10° ESE 16:08:06 19° ENE 16:10:49 10° NNE
Cosmos 2084 Rocket 4.0 16:04:52 10° NW 16:09:15 62° SW 16:13:43 10° SSE
Cosmos 2227 4.2 16:04:43 10° SSW 16:10:28 83° ESE 16:16:13 10° NNE
USA 234 4.5 16:06:35 10° E 16:11:05 19° ESE 16:15:33 10° SSE
CREW DRAGON DEMO-1 DEB 3.8 16:08:19 10° WNW 16:11:13 39° N 16:14:06 10° ENE
USA 186 3.0 16:10:16 10° ESE 16:12:49 23° ENE 16:15:28 10° NNE
Cosmos 1943 3.4 16:07:51 10° NNW 16:13:32 79° WSW 16:19:11 10° SSE
OPS 6432 4.4 16:10:52 10° NW 16:13:59 85° NE 16:17:52 10° SE
Cosmos 1975 Rocket 3.0 16:10:06 10° N 16:14:27 76° E 16:18:46 10° SSE
Cosmos 1898 Rocket 3.5 16:09:47 10° SSW 16:14:58 88° WNW 16:20:12 10° NNE
COSMO-SKYMED 1 4.0 16:14:05 10° N 16:18:12 42° WNW 16:22:17 10° SW
HJ-1C 3.2 16:15:13 10° SSE 16:18:30 76° ENE 16:21:48 10° N
FREGAT/IRIS 4.1 16:18:45 14° E 16:19:29 16° ENE 16:21:09 10° NNE
ATLAS CENTAUR R/B 3.9 16:18:12 10° WNW 16:20:25 15° NNW 16:22:37 10° N
Cosmos 1867 3.6 16:16:16 10° NW 16:21:46 79° NE 16:27:13 10° SE
BREEZE-M DEB (TANK) 2.6 16:19:07 10° WNW 16:21:48 73° SSW 16:27:56 12° ESE
CSL-04 Debris 4.4 16:20:48 10° S 16:26:11 78° WSW 16:31:36 10° NNW
Cosmos 858 Rocket 4.5 16:22:01 10° SSW 16:27:14 86° ESE 16:32:29 10° NNE
Resurs 01 Rocket 3.4 16:27:44 13° E 16:29:23 16° ENE 16:32:00 10° NNE
Cosmos 372 Rocket 4.2 16:24:51 10° S 16:29:51 47° ESE 16:34:51 10° NNE
USA 102 2.9 16:24:21 10° SE 16:30:26 36° E 16:30:57 32° ENE
Meteor 1-12 Rocket 4.5 16:26:36 10° SSE 16:32:18 52° E 16:37:56 10° NNE
Lacrosse 5 rocket 3.0 16:29:02 10° W 16:32:55 33° NNW 16:37:00 10° NE
Sich 1 Rocket 3.5 16:29:33 10° S 16:34:01 72° E 16:38:34 10° NNE
CSL-04 Rocket 4.0 16:29:21 10° S 16:34:44 70° WSW 16:40:15 10° NNW
MOS 1 Rocket 3.0 16:30:23 10° NNE 16:34:52 67° E 16:39:10 10° S
Cosmos 1513 Rocket 4.5 16:31:53 10° S 16:38:03 63° E 16:44:09 10° NNE
SJ 16-02 3.7 16:39:12 10° WSW 16:42:54 26° WNW 16:46:38 10° N
Cosmos 1937 Rocket 3.8 16:37:59 10° SSW 16:43:14 71° WNW 16:48:28 10° NNE
NOSS 2-2 (E) 3.0 16:41:33 10° SW 16:45:03 85° SE 16:49:05 10° NE
OBJECT-B 2.0 16:46:09 24° E 16:46:33 25° ENE 16:49:15 10° NNE
Cosmos 1464 Rocket 3.9 16:40:52 10° S 16:46:57 70° E 16:53:06 10° NNE
Cosmos 1626 4.1 16:45:14 10° NNE 16:46:57 14° ENE 16:46:57 14° ENE
Cosmos 1125 Rocket 4.3 16:43:09 10° SSE 16:47:40 29° E 16:52:14 10° NE
ATLAS 2AS CENTAUR R/B 4.0 16:45:22 10° SSE 16:50:49 21° ESE 16:56:16 10° ENE
Cosmos 1092 Rocket 4.4 16:46:42 10° N 16:52:28 40° ENE 16:56:16 20° SE
Okean 2 Rocket 3.0 16:48:13 10° S 16:52:41 73° E 16:57:11 10° NNE
NOSS 2-2 (D) 3.0 16:50:13 10° SW 16:53:43 82° SE 16:57:40 10° NE
SL-08 RB Rocket 3.6 16:49:26 10° SSE 16:54:01 85° ENE 16:58:37 10° NNW
Okean 1 Rocket 4.0 16:54:04 26° ESE 16:54:53 27° E 16:58:41 10° NNE
Exosat Rocket 4.2 16:50:27 10° SSE 16:55:22 32° ESE 16:59:47 10° NE
Meteor 2-5 Rocket 4.3 16:52:43 10° N 16:57:56 36° ENE 17:00:28 25° ESE
CENTAUR R/B 3.3 16:51:14 10° NW 16:59:00 60° NE 17:04:47 23° ESE
Abrixas rocket 1.8 16:56:59 10° W 16:59:50 80° N 17:00:27 51° ENE
Cosmos 1300 Rocket 3.5 16:57:13 10° S 17:01:37 87° E 17:06:05 10° N
Cosmos 468 4.5 16:56:21 10° NNW 17:01:43 73° ENE 17:05:21 21° SSE
Resurs 1-3 4.0 17:04:07 31° ESE 17:05:43 44° ENE 17:09:54 10° N
ATLAS 3B R/B 3.8 16:59:43 10° NW 17:05:43 32° NNE 17:09:41 19° ENE
Cosmos 2082 Rocket 4.1 17:03:14 10° N 17:06:26 15° NE 17:08:35 13° ENE
H-2A R/B 3.2 17:04:04 10° SSW 17:08:44 41° W 17:13:33 10° NNW
USA 238 DEB 3.8 17:03:00 10° NW 17:10:14 83° NE 17:15:03 25° SE
USA 238 3.8 17:03:06 10° NW 17:10:20 83° NE 17:15:08 25° SE
Cosmos 1805 3.8 17:13:47 37° ENE 17:13:47 37° ENE 17:16:58 10° NNE
Cosmos 1048 Rocket 4.0 17:09:08 10° NNW 17:14:29 87° ENE 17:17:46 24° SSE
Cosmos 1674 2.6 17:12:34 10° N 17:16:26 66° E 17:17:20 47° SE
In-Cosmos 22 4.4 17:11:25 10° NNW 17:16:40 68° W 17:21:58 10° S
COSMOS 2406 4.2 17:12:29 10° NNW 17:17:27 30° NE 17:19:03 26° ENE
Cosmos 1536 Rocket 3.6 17:14:06 10° NNW 17:18:34 79° W 17:21:48 18° S
Meteor 1-24 Rocket 4.1 17:16:08 10° N 17:21:21 42° ENE 17:22:44 36° ESE
ARGOS 4.2 17:16:15 10° S 17:21:21 44° W 17:26:31 10° NNW
CZ-2C R/B 4.2 17:18:55 10° NNE 17:22:31 37° ENE 17:22:31 37° ENE
ISS -3.9 17:19:49 10° WSW 17:23:09 78° SSE 17:23:09 78° SSE
CZ-2C R/B 2.7 17:18:18 10° NNE 17:23:52 88° ESE 17:29:28 10° SSW
Cosmos 1269 Rocket 4.5 17:20:55 10° NNW 17:26:00 44° ENE 17:27:08 39° E
Cosmos 1025 Rocket 4.0 17:24:32 10° NNW 17:28:44 46° W 17:32:56 10° SSW
Spot 2 Rocket 4.4 17:30:43 29° ENE 17:30:50 29° ENE 17:35:09 10° N
SL-14 R/B 4.3 17:29:35 10° N 17:32:21 33° NE 17:32:21 33° NE
Cosmos 2151 Rocket 4.1 17:29:46 10° SSW 17:34:09 60° WNW 17:38:38 10° N
Ariane Rocket 3.8 17:32:43 10° S 17:37:33 49° W 17:42:29 10° NNW
KORONAS-FOTON 3.9 17:33:48 10° NNW 17:37:44 74° W 17:38:31 54° SSW
NOSS 3-2 (A) 4.2 17:30:28 10° NW 17:37:57 71° SW 17:42:54 27° SSE
NOSS 2-2 (C) 4.4 17:35:05 10° WSW 17:38:27 41° NW 17:42:21 10° NNE
Nadezhda 4 Rocket 4.3 17:32:31 10° NNW 17:38:34 64° W 17:44:35 10° S
Cosmos 1844 3.6 17:33:29 10° SSW 17:39:09 71° ESE 17:44:48 10° NNE
MetOp-B 4.4 17:38:57 45° E 17:39:40 48° ENE 17:44:48 10° N
Cosmos 2263 Rocket 4.3 17:37:13 10° WSW 17:41:55 27° NW 17:46:40 10° N
SJ-6B 4.0 17:40:37 22° SSW 17:42:31 38° W 17:46:03 10° NNW
USA 186 4.2 17:41:32 13° SW 17:43:29 21° W 17:46:02 10° NW
Terra 3.9 17:44:49 14° NE 17:44:49 14° NE 17:46:34 10° NNE
Cosmos 494 Rocket 4.0 17:39:08 10° NNW 17:44:26 82° WSW 17:46:04 45° SSE
Cosmos 2034 Rocket 4.4 17:38:17 10° SSW 17:44:36 65° WNW 17:50:56 10° N
Cosmos 1766 4.0 17:48:17 44° NNE 17:48:17 44° NNE 17:51:04 10° NNE
CREW DRAGON DEMO-1 DEB 4.4 17:44:10 10° WNW 17:46:07 35° NW 17:46:07 35° NW
Cosmos 1844 Rocket 2.6 17:42:33 10° SSW 17:48:07 83° WNW 17:53:46 10° NNE
SPOT 3 Rocket 3.6 17:52:17 43° S 17:53:58 75° WSW 17:59:08 10° NNW
Lacrosse 4 Rocket 3.5 17:51:54 10° N 17:54:01 17° NNE 17:54:01 17° NNE
USA 234 3.1 17:49:42 17° ENE 17:54:56 66° SE 18:01:26 10° SW
Resurs 01 Rocket 1.7 18:05:20 73° WSW 18:05:20 73° WSW 18:09:48 10° NNW
SPOT 5 4.2 18:10:14 31° NE 18:10:14 31° NE 18:13:58 10° N
Cosmos 1833 Rocket 3.0 18:04:19 10° NNW 18:09:44 49° NE 18:09:44 49° NE
Cosmos 1655 Rocket 4.2 18:05:52 10° N 18:11:46 50° ENE 18:11:46 50° ENE
NOSS 3-2 (C) 4.2 18:05:14 10° NW 18:12:42 68° SW 18:15:36 43° S
Lacrosse 5 rocket 3.2 18:09:23 10° NW 18:13:07 26° N 18:13:51 25° NNE
Cosmos 1634 Rocket 4.0 18:14:26 35° SSW 18:17:13 78° W 18:23:27 10° N
OBJECT-B 3.4 18:19:21 20° W 18:19:21 20° W 18:21:23 10° NW
ARIANE 5 R/B 3.4 18:23:29 49° NNW 18:23:29 49° NNW 18:26:42 10° NNW
Cosmos 1626 3.9 18:19:17 10° NNW 18:21:30 31° NW 18:21:30 31° NW
Cosmos 2285 Rocket 4.3 18:18:32 10° SW 18:24:47 64° WNW 18:31:07 10° NNE
Landsat 7 4.4 18:30:13 55° NNW 18:30:13 55° NNW 18:33:59 10° NNW
ERS-1 Rocket 3.9 18:37:27 40° NNE 18:37:27 40° NNE 18:40:50 10° N
Meteor 2-19 Rocket 4.3 18:32:37 10° N 18:38:34 84° NNW 18:38:34 84° NNW
ATLAS 2AS CENTAUR R/B 2.9 18:32:49 10° SSW 18:40:45 79° SE 18:48:39 10° NE
CENTAUR R/B 3.8 18:42:07 10° NW 18:49:52 48° WSW 18:51:58 41° SSW
Cosmos 2098 Rocket 4.1 18:42:43 10° N 18:49:33 81° N 18:49:33 81° N
Cosmos 2082 Rocket 2.9 18:46:12 10° NNW 18:50:26 47° N 18:50:26 47° N
ATLAS 3B R/B 2.6 18:50:21 10° NW 18:56:56 83° NNW 18:56:56 83° NNW
Cosmos 2279 Rocket 4.3 19:00:02 59° W 19:00:22 60° WNW 19:06:36 10° N
SPOT 1/Viking Rocket 4.5 19:02:43 45° NW 19:02:43 45° NW 19:06:34 10° NNW
COSMOS 2406 3.9 18:56:33 10° NW 19:01:06 49° WNW 19:01:06 49° WNW
Cosmos 909 Rocket 4.4 19:07:11 10° NW 19:12:38 62° NNW 19:12:38 62° NNW
Terra 3.8 19:23:43 26° NNW 19:23:43 26° NNW 19:25:47 10° NNW
Cosmos 2278 Rocket 4.0 19:26:08 24° NNE 19:26:08 24° NNE 19:28:15 10° NNE
Lacrosse 4 Rocket 4.4 19:29:46 10° NW 19:30:19 14° NW 19:30:19 14° NW
USA 234 3.7 19:37:13 54° N 19:37:54 56° NNW 19:44:16 10° W
Lacrosse 5 rocket 4.5 19:48:48 10° NW 19:49:28 14° NW 19:49:28 14° NW
ATLAS 2AS CENTAUR R/B 4.1 20:25:05 10° W 20:32:29 40° NNW 20:39:43 10° NE
Cosmos 2227 Rocket 4.4 21:42:22 10° N 21:46:04 20° NE 21:46:04 20° NE
CZ-4C R/B 4.1 21:49:08 27° N 21:49:08 27° N 21:53:12 10° NE
Cosmos 1943 Rocket 4.3 22:16:55 21° NNW 22:16:55 21° NNW 22:19:27 10° N
CZ-2D R/B 4.3 22:15:48 10° NNE 22:17:49 20° NE 22:17:49 20° NE
Resurs 1-4 Rocket 4.1 22:26:33 10° NNE 22:28:49 23° NE 22:28:49 23° NE
Cosmos 2297 Rocket 4.0 22:28:39 10° NNW 22:31:23 26° N 22:31:23 26° N
Cosmos 2369 Rocket 4.2 22:44:14 22° NNW 22:44:14 22° NNW 22:47:09 10° N
SL-16 R/B 3.6 22:58:38 39° NNW 22:58:38 39° NNW 23:02:20 10° NNW
Lacrosse 5 4.4 23:02:21 14° E 23:02:21 14° E 23:03:21 10° ENE
USA 234 3.9 22:56:19 10° E 23:02:35 52° NNE 23:05:21 32° NW
BREEZE-M DEB (TANK) 4.4 23:22:41 64° ENE 23:22:41 64° ENE 23:35:09 10° E
Cosmos 2227 Rocket 3.9 23:25:43 10° NNW 23:27:48 24° NNW 23:27:48 24° NNW
ADEOS II 3.1 23:26:30 10° NNE 23:30:32 44° ENE 23:30:32 44° ENE
IDEFIX/ARIANE 42P 4.3 23:38:22 10° NE 23:42:47 26° E 23:44:04 24° ESE
ARIANE 5 R/B 3.7 23:41:15 10° NNE 23:45:54 34° E 23:46:07 34° ESE
IRS-1D 4.1 23:43:31 10° NNE 23:47:53 59° NNE 23:47:53 59° NNE
Cosmos 1821 Rocket 4.4 23:43:26 10° N 23:49:42 60° ENE 23:51:20 46° SE
